カタログに戻る

THORAD DELTA 1 DEB

運用中LEO
NORAD 8562·DEBRIS·🇺🇸 United States

打ち上げ Nov 15, 1974 から Vandenberg Space Force Base

Loading…

次のパス (今後24時間)

TLE

最新Source: Space-Track

元期: Sep 14, 2026, 05:06 UTC

1 08562U 74089CZ  26257.21297691 -.00000017  00000-0  20614-3 0  9993
2 08562 101.6876 356.5034 0262889  39.1545 350.9795 12.15418266366098

AllMySatでTHORAD DELTA 1 DEBをリアルタイム追跡

Download on the App Store